Location: Hamilton
(37.7830°S, 175.2830°E)
Time: 21:22:23
(UTC+13:00)

NOAA 11 - Pass Details

Date: 24 January 2019
Orbit: 832 x 850 km, 98.4° (Epoch: 17 October)

Event Time Altitude Azimuth Distance (km) Brightness Sun altitude
Rises 21:29:56 0° 163° (SSE) 3,448 7.6 -9.7°
Reaches altitude 10° 21:32:22 10° 159° (SSE) 2,506 6.8 -10.1°
Maximum altitude 21:37:52 60° 79° (E) 981 4.3 -11.0°
Drops below altitude 10° 21:43:18 10° 360° (N) 2,477 6.3 -11.9°
Sets 21:45:41 0° 356° (N) 3,404 7.0 -12.3°
